Agenzia del porto Bunker Vibo
  Sponsor: FILAVIA SAIL 

OBSERVATIONS
LATEST DOWNLOAD: 2019/01/20 05:42:32

STATION EGPH/031600
Sunday, 20 January 2019, 04:20 UTC

pressure 1013 hPa
temperature 2 °C
dewpoint 1 °C
humidity 93.1%
wind SW-6 knots
visibility Fair
sky Overcast clouds
weather -

MAIN LOCATIONS

HOURLY DATA

HOTEL RESERVATION

WEATHER REPORT WEATHER REPORT

METEOMAR METEOMAR

WEATHER CHARTS WEATHER CHARTS

WEBCAM WEBCAM



 EDINBURGH
COUNTRY
UNITED KINGDOM
     LAT
55.95 N
    LON
3.35 W
    ELEV
41 m
     REGION
-
     PROVINCE
-
     ZONE
-

LATEST 24 HOURS ( 48 OBSERVATIONS )
Observation time
UTC
temperature
humidity
%
pressure
hPa
  wind
knots
2019/01/20 04:202 931013SW-6
2019/01/20 03:502 931013SW-5
2019/01/20 03:202 931013SW-6
2019/01/20 02:502 931013SW-7
2019/01/20 02:202 931013WSW-4
2019/01/20 01:502 931013WSW-3
2019/01/20 01:202 931013SSW-3
2019/01/20 00:502 931012VAR-2
2019/01/20 00:202 931012VAR-3
2019/01/19 23:502 931012W-3
2019/01/19 23:202 931012W-3
2019/01/19 22:502 931012SW-3
2019/01/19 22:202 931012W-4
2019/01/19 21:502 931011W-4
2019/01/19 21:202 931011W-3
2019/01/19 20:502 931011WSW-3
2019/01/19 20:202 931011SSW-4
2019/01/19 19:502 931011SW-4
2019/01/19 19:203 861010VAR-3
2019/01/19 18:503 861010S-3
2019/01/19 17:503 861010VAR-2
2019/01/19 17:203 861009ESE-4
2019/01/19 16:503 861009SE-5
2019/01/19 16:203 861009ESE-3
2019/01/19 15:503 861009ENE-3
2019/01/19 15:204 801008VAR-2
2019/01/19 14:503 861008VAR-2
2019/01/19 14:203 861008N-2
2019/01/19 13:503 931008N-2
2019/01/19 13:203 931009VAR-1
2019/01/19 12:503 931009VAR-2
2019/01/19 12:203 931009VAR-2
2019/01/19 11:502 1001009VAR-2
2019/01/19 11:202 931009VAR-2
2019/01/19 10:502 1001009VAR-2
2019/01/19 10:202 1001009VAR-2
2019/01/19 09:501 1001009VAR-3
2019/01/19 09:201 931008VAR-1
2019/01/19 08:500 1001008WSW-2
2019/01/19 08:200 1001008NW-1
2019/01/19 07:500 1001007WSW-2
2019/01/19 07:201 931007VAR-2
2019/01/19 06:501 931007NNE-2
2019/01/19 06:201 1001007VAR-3
2019/01/19 05:501 1001007SE-3
2019/01/19 05:202 931007VAR-2
2019/01/19 04:501 1001007WSW-2
2019/01/19 04:201 1001007NW-2
( Previous data )

ARCHIVE   LOCAL FORECASTS   CLIMATE AVERAGES